TimeAKDT,TemperatureF,Dew PointF,Humidity,Sea Level PressureIn,VisibilityMPH,Wind Direction,Wind SpeedMPH,Gust SpeedMPH,PrecipitationIn,Events,Conditions,WindDirDegrees,DateUTC
12:16 AM,42.8,37.4,81,30.03,9.0,South,8.1,-,N/A,,Overcast,190,2011-10-27 08:16:00
12:36 AM,42.8,37.4,81,30.04,7.0,Calm,Calm,-,N/A,,Overcast,0,2011-10-27 08:36:00
12:56 AM,42.8,37.4,81,30.04,8.0,East,9.2,-,N/A,,Overcast,80,2011-10-27 08:56:00
1:16 AM,42.8,37.4,81,30.03,10.0,East,11.5,17.3,N/A,,Overcast,100,2011-10-27 09:16:00
1:36 AM,42.8,37.4,81,30.04,10.0,Calm,Calm,-,N/A,,Overcast,0,2011-10-27 09:36:00
1:56 AM,42.8,37.4,81,30.05,10.0,NW,3.5,-,N/A,,Overcast,320,2011-10-27 09:56:00
2:16 AM,42.8,37.4,81,30.06,9.0,West,4.6,-,N/A,,Overcast,280,2011-10-27 10:16:00
2:36 AM,42.8,39.2,87,30.06,10.0,Calm,Calm,-,N/A,,Overcast,0,2011-10-27 10:36:00
2:56 AM,42.8,39.2,87,30.05,10.0,East,11.5,-,N/A,,Overcast,100,2011-10-27 10:56:00
3:16 AM,42.8,37.4,81,30.05,10.0,East,12.7,18.4,N/A,,Overcast,90,2011-10-27 11:16:00
3:36 AM,42.8,37.4,81,30.05,10.0,East,10.4,17.3,N/A,,Overcast,90,2011-10-27 11:36:00
3:56 AM,42.8,37.4,81,30.05,10.0,East,13.8,17.3,N/A,,Overcast,100,2011-10-27 11:56:00
4:16 AM,42.8,37.4,81,30.04,10.0,East,17.3,-,N/A,,Overcast,100,2011-10-27 12:16:00
4:36 AM,42.8,37.4,81,30.04,10.0,East,13.8,20.7,N/A,,Overcast,100,2011-10-27 12:36:00
4:56 AM,42.8,37.4,81,30.05,10.0,East,15.0,21.9,N/A,,Overcast,100,2011-10-27 12:56:00
5:16 AM,42.8,37.4,81,30.06,10.0,Calm,Calm,-,N/A,,Overcast,0,2011-10-27 13:16:00
5:36 AM,42.8,35.6,76,30.06,10.0,ESE,3.5,-,N/A,,Overcast,120,2011-10-27 13:36:00
5:56 AM,42.8,35.6,76,30.07,10.0,Calm,Calm,-,N/A,,Overcast,0,2011-10-27 13:56:00
6:16 AM,42.8,37.4,81,30.06,10.0,East,11.5,16.1,N/A,,Overcast,90,2011-10-27 14:16:00
6:36 AM,42.8,37.4,81,30.05,10.0,East,13.8,-,N/A,,Overcast,80,2011-10-27 14:36:00
6:56 AM,42.8,37.4,81,30.05,10.0,East,12.7,-,N/A,,Overcast,100,2011-10-27 14:56:00
7:16 AM,42.8,37.4,81,30.06,10.0,East,10.4,-,N/A,,Overcast,100,2011-10-27 15:16:00
7:36 AM,42.8,37.4,81,30.06,10.0,East,11.5,-,N/A,,Overcast,90,2011-10-27 15:36:00
7:56 AM,42.8,37.4,81,30.06,10.0,East,12.7,-,N/A,,Overcast,90,2011-10-27 15:56:00
8:16 AM,42.8,37.4,81,30.06,10.0,East,10.4,-,N/A,,Overcast,100,2011-10-27 16:16:00
8:36 AM,42.8,37.4,81,30.06,10.0,East,9.2,-,N/A,,Overcast,90,2011-10-27 16:36:00
8:56 AM,42.8,37.4,81,30.06,10.0,East,10.4,-,N/A,,Overcast,100,2011-10-27 16:56:00
9:16 AM,42.8,37.4,81,30.06,10.0,East,9.2,-,N/A,,Overcast,100,2011-10-27 17:16:00
9:36 AM,42.8,37.4,81,30.06,10.0,East,10.4,-,N/A,,Overcast,100,2011-10-27 17:36:00
9:56 AM,42.8,37.4,81,30.05,10.0,East,11.5,-,N/A,,Overcast,90,2011-10-27 17:56:00
10:16 AM,42.8,37.4,81,30.04,10.0,East,13.8,18.4,N/A,,Overcast,80,2011-10-27 18:16:00
10:36 AM,42.8,37.4,81,30.04,10.0,ENE,10.4,-,N/A,,Overcast,70,2011-10-27 18:36:00
10:56 AM,42.8,39.2,87,30.03,10.0,East,10.4,-,N/A,,Overcast,80,2011-10-27 18:56:00
11:16 AM,42.8,37.4,81,30.03,10.0,ESE,15.0,18.4,N/A,,Overcast,120,2011-10-27 19:16:00
11:36 AM,42.8,37.4,81,30.02,10.0,SE,16.1,-,N/A,,Overcast,130,2011-10-27 19:36:00
11:56 AM,42.8,37.4,81,30.02,10.0,ESE,15.0,-,N/A,,Overcast,120,2011-10-27 19:56:00
12:16 PM,42.8,39.2,87,30.01,10.0,ESE,12.7,-,N/A,,Overcast,110,2011-10-27 20:16:00
12:36 PM,42.8,39.2,87,30.00,10.0,ESE,15.0,19.6,N/A,,Overcast,110,2011-10-27 20:36:00
12:56 PM,42.8,39.2,87,29.99,7.0,East,13.8,-,N/A,,Overcast,100,2011-10-27 20:56:00
1:16 PM,44.6,39.2,81,29.98,10.0,ESE,15.0,20.7,N/A,,Overcast,110,2011-10-27 21:16:00
1:36 PM,44.6,37.4,76,29.98,10.0,ESE,12.7,-,N/A,,Overcast,110,2011-10-27 21:36:00
1:56 PM,44.6,37.4,76,29.96,10.0,ESE,13.8,18.4,N/A,,Overcast,120,2011-10-27 21:56:00
2:16 PM,44.6,37.4,76,29.95,10.0,ESE,12.7,21.9,N/A,,Overcast,110,2011-10-27 22:16:00
2:36 PM,44.6,37.4,76,29.93,10.0,East,10.4,-,N/A,,Overcast,80,2011-10-27 22:36:00
2:56 PM,44.6,37.4,76,29.92,10.0,East,12.7,-,N/A,,Overcast,100,2011-10-27 22:56:00
3:16 PM,44.6,35.6,71,29.91,10.0,SSE,8.1,-,N/A,,Overcast,150,2011-10-27 23:16:00
3:36 PM,44.6,35.6,71,29.89,10.0,SE,11.5,19.6,N/A,,Overcast,130,2011-10-27 23:36:00
3:56 PM,44.6,35.6,71,29.86,10.0,SE,20.7,26.5,N/A,,Overcast,130,2011-10-27 23:56:00
4:16 PM,44.6,35.6,71,29.86,10.0,SE,15.0,24.2,N/A,,Overcast,130,2011-10-28 00:16:00
4:36 PM,42.8,37.4,81,29.83,10.0,SE,15.0,19.6,N/A,,Overcast,130,2011-10-28 00:36:00
4:56 PM,44.6,37.4,76,29.82,10.0,ESE,12.7,19.6,N/A,,Overcast,120,2011-10-28 00:56:00
5:16 PM,44.6,37.4,76,29.79,10.0,East,11.5,-,N/A,,Overcast,90,2011-10-28 01:16:00
5:36 PM,42.8,39.2,87,29.76,10.0,East,11.5,-,N/A,,Overcast,100,2011-10-28 01:36:00
5:56 PM,44.6,37.4,76,29.74,10.0,East,12.7,-,N/A,,Overcast,100,2011-10-28 01:56:00
6:16 PM,44.6,37.4,76,29.72,10.0,East,11.5,-,N/A,,Overcast,90,2011-10-28 02:16:00
6:36 PM,44.6,37.4,76,29.70,10.0,East,10.4,-,N/A,,Overcast,90,2011-10-28 02:36:00
6:56 PM,44.6,37.4,76,29.67,10.0,ENE,12.7,-,N/A,,Overcast,70,2011-10-28 02:56:00
7:16 PM,44.6,35.6,71,29.65,10.0,East,11.5,16.1,N/A,,Overcast,90,2011-10-28 03:16:00
7:36 PM,44.6,37.4,76,29.62,10.0,East,9.2,-,N/A,,Overcast,90,2011-10-28 03:36:00
7:56 PM,46.4,35.6,66,29.60,10.0,East,9.2,-,N/A,,Overcast,100,2011-10-28 03:56:00
8:16 PM,46.4,35.6,66,29.58,10.0,ESE,6.9,-,N/A,,Overcast,110,2011-10-28 04:16:00
8:36 PM,46.4,35.6,66,29.55,10.0,ESE,11.5,-,N/A,,Overcast,120,2011-10-28 04:36:00
8:56 PM,46.4,35.6,66,29.52,10.0,East,10.4,-,N/A,,Mostly Cloudy,100,2011-10-28 04:56:00
9:16 PM,46.4,35.6,66,29.50,10.0,East,9.2,-,N/A,,Mostly Cloudy,90,2011-10-28 05:16:00
9:56 PM,46.4,35.6,66,29.46,10.0,East,9.2,-,N/A,,Overcast,80,2011-10-28 05:56:00
10:16 PM,46.4,35.6,66,29.43,10.0,East,11.5,-,N/A,,Overcast,80,2011-10-28 06:16:00
10:36 PM,46.4,33.8,62,29.39,10.0,East,15.0,18.4,N/A,,Overcast,90,2011-10-28 06:36:00
10:56 PM,46.4,33.8,62,29.35,10.0,East,15.0,-,N/A,,Overcast,90,2011-10-28 06:56:00
11:16 PM,44.6,33.8,66,29.31,10.0,East,13.8,25.3,N/A,,Overcast,90,2011-10-28 07:16:00
11:36 PM,44.6,33.8,66,29.27,10.0,East,16.1,21.9,N/A,,Overcast,100,2011-10-28 07:36:00
11:56 PM,44.6,33.8,66,29.24,10.0,East,15.0,23.0,N/A,,Overcast,90,2011-10-28 07:56:00